CAT,Max TemperatureF,Mean TemperatureF,Min TemperatureF,Max Dew PointF,MeanDew PointF,Min DewpointF,Max Humidity, Mean Humidity, Min Humidity, Max Sea Level PressureIn, Mean Sea Level PressureIn, Min Sea Level PressureIn, Max VisibilityMiles, Mean VisibilityMiles, Min VisibilityMiles, Max Wind SpeedMPH, Mean Wind SpeedMPH, Max Gust SpeedMPH,PrecipitationIn, CloudCover, Events, WindDirDegrees
2011-10-1,89,81,73,52,50,48,44,33,24,30.06,30.01,29.95,6,6,6,15,9,,0.00,1,,44
2011-10-2,93,81,69,55,54,52,53,37,26,30.04,29.96,29.86,6,6,5,13,9,,0.00,2,,6
2011-10-3,87,76,66,61,58,55,83,53,33,30.09,29.99,29.92,6,6,6,13,8,,0.00,6,Rain-Thunderstorm,34
2011-10-4,91,78,64,61,56,48,88,45,26,30.06,29.99,29.89,6,6,6,12,7,,0.00,2,Thunderstorm,49
2011-10-5,93,75,57,54,40,34,77,31,12,30.06,30.01,29.95,6,6,6,14,6,,0.00,1,,182
2011-10-6,86,78,71,57,55,54,60,46,37,30.24,30.18,30.12,6,6,6,23,19,,0.00,2,,104
2011-10-7,84,72,60,50,44,32,59,36,20,30.30,30.19,30.09,6,6,6,16,12,,0.00,1,,104
2011-10-8,84,72,59,45,40,32,55,27,19,30.24,30.13,30.04,6,6,6,20,13,,0.00,1,,112
2011-10-9,87,74,60,45,38,30,36,24,17,30.21,30.12,30.04,,,,24,13,,0.00,,,102
2011-10-10,89,78,68,45,40,34,28,22,16,30.18,30.09,30.01,6,6,6,18,12,,0.00,1,,107
2011-10-11,91,80,68,50,44,39,43,28,16,30.15,30.04,29.95,6,6,6,17,12,,0.00,2,,105
2011-10-12,91,76,60,52,44,39,52,31,17,30.06,29.99,29.89,6,6,6,10,7,,0.00,2,,123
2011-10-13,95,80,66,50,41,36,40,25,12,30.04,29.97,29.89,6,6,6,13,10,,0.00,1,,95
2011-10-14,95,78,62,45,42,37,45,24,14,30.06,29.98,29.89,6,6,6,17,10,,0.00,2,,90
2011-10-15,96,80,64,54,46,43,46,26,16,30.06,29.96,29.89,6,6,6,12,8,,0.00,2,,79
2011-10-16,100,82,64,52,47,43,52,26,15,30.18,29.95,29.83,6,6,6,8,6,,0.00,3,,12
2011-10-17,100,84,69,54,48,45,43,25,16,30.42,29.87,29.77,6,6,6,9,5,,0.00,1,,5
2011-10-18,98,86,75,57,54,52,47,31,21,29.95,29.86,29.77,6,6,6,20,10,,0.00,1,,27
2011-10-19,91,84,77,59,57,52,54,40,33,30.01,29.91,29.86,6,6,6,18,11,,0.00,4,Thunderstorm,93
2011-10-20,93,81,69,63,60,55,73,48,31,29.98,29.93,29.86,6,6,6,10,6,,0.00,4,Thunderstorm,264
2011-10-21,96,84,71,57,51,45,50,29,17,29.98,29.91,29.83,6,6,6,21,13,,0.00,1,,112
2011-10-22,98,86,73,61,57,54,57,36,23,30.01,29.92,29.83,6,6,6,17,10,,0.00,2,,92
2011-10-23,100,84,68,63,58,54,78,38,22,30.01,29.93,29.83,6,6,6,9,5,,0.00,2,,56
2011-10-24,104,88,71,61,54,46,69,30,15,29.98,29.89,29.80,6,6,6,16,6,,0.00,2,,81
2011-10-25,104,84,64,54,50,48,59,26,15,29.89,29.79,29.71,6,6,6,13,9,,0.00,2,,327
2011-10-26,102,90,78,63,53,46,57,28,17,29.86,29.79,29.71,6,6,6,10,7,,0.00,2,,338
2011-10-27,95,86,77,61,56,54,50,35,26,29.98,29.91,29.86,6,6,6,16,11,,0.00,2,,300
2011-10-28,98,83,68,61,57,52,73,42,24,29.98,29.91,29.80,6,6,6,18,7,,0.00,1,Rain-Thunderstorm,83
2011-10-29,95,82,68,61,58,55,78,47,26,30.01,29.96,29.89,6,6,6,9,4,,0.00,1,,328
2011-10-30,98,86,73,57,52,45,41,29,18,30.01,29.91,29.83,6,6,6,12,7,,0.00,3,,343
2011-10-31,100,81,62,57,48,43,59,26,14,29.95,29.88,29.83,6,6,6,10,6,,0.00,1,,326